CYBB

Pelly Bay Airport

Pelly Bay, Canada
Issued Wind Visibility Ceiling Temperature Dew Point Humidity Barometer
Sep-26
16:00 UTC
040°
6 KTS
15 miles   C
34° F
-1° C
30° F
87% 29.98" Hg
1015.6 hPa
VFR
Sep-26
15:00 UTC
050°
5 KTS
15 miles   -1° C
30° F
-3° C
27° F
86% 29.99" Hg
1016 hPa
VFR
Sep-26
14:00 UTC
060°
5 KTS
15 miles   -3° C
27° F
-4° C
25° F
93% 30.01" Hg
1016.4 hPa
VFR
Sep-26
13:00 UTC
050°
4 KTS
15 miles   -6° C
21° F
-7° C
19° F
93% 30.02" Hg
1016.7 hPa
VFR
Sep-26
12:00 UTC
090°
3 KTS
15 miles   -6° C
21° F
-7° C
19° F
93% 30.03" Hg
1017 hPa
VFR
Sep-25
23:00 UTC
300°
7 KTS
15 miles Broken
1,800' AGL
-1° C
30° F
-5° C
23° F
75% 30.06" Hg
1018.2 hPa
MVFR
Sep-25
22:15 UTC
270°
7 KTS
15 miles Broken
1,800' AGL
-1° C
30° F
-5° C
23° F
75% 30.06" Hg
1018.1 hPa
MVFR
Sep-25
21:23 UTC
280°
10 KTS
15 miles Broken
1,300' AGL
-1° C
30° F
-4° C
25° F
80% 30.05" Hg
1018 hPa
MVFR
Sep-25
21:00 UTC
300°
10 KTS
15 miles Broken
1,300' AGL
-1° C
30° F
-5° C
23° F
75% 30.06" Hg
1018.1 hPa
MVFR
Sep-25
20:00 UTC
290°
9 KTS
15 miles Broken
1,300' AGL
-1° C
30° F
-5° C
23° F
75% 30.05" Hg
1017.9 hPa
MVFR
Sep-25
19:00 UTC
280°
10 KTS
15 miles Broken
1,300' AGL
-1° C
30° F
-4° C
25° F
80% 30.05" Hg
1018 hPa
MVFR
Sep-25
18:35 UTC
280°
12 KTS
15 miles Broken
1,300' AGL
C
32° F
-4° C
25° F
75% 30.05" Hg
1018 hPa
MVFR
Sep-25
18:00 UTC
270°
10 KTS
15 miles Broken
1,300' AGL
-1° C
30° F
-5° C
23° F
75% 30.05" Hg
1018 hPa
MVFR
Sep-25
17:33 UTC
290°
10 KTS
15 miles Broken
1,300' AGL
-1° C
30° F
-5° C
23° F
75% 30.06" Hg
1018.1 hPa
MVFR
Sep-25
17:00 UTC
290°
8 KTS
15 miles Broken
2,000' AGL
-1° C
30° F
-5° C
23° F
75% 30.06" Hg
1018.1 hPa
MVFR
Sep-25
16:44 UTC
290°
9 KTS
15 miles Broken
2,000' AGL
-1° C
30° F
-4° C
25° F
80% 30.06" Hg
1018.2 hPa
MVFR